Regional Weather Roundup
Issued by NWS

Home | Current Version | Previous Version | Graphics & Text | Print | Product List | Glossary On
Versions: 1 2 3 4 5 6 7 8 9 10 11 12 13 14 15 16 17 18 19 20 21 22 23 24 25 26 27
000
ASUS45 KPSR 240910
RWRAZ

ARIZONA HOURLY REGIONAL WEATHER ROUNDUP
NATIONAL WEATHER SERVICE PHOENIX AZ
200 AM MST FRI MAR 24 2017

NOTE: FAIR INDICATES FEW OR NO CLOUDS BELOW 12,000 FEET WITH NO
SIGNIFICANT WEATHER AND/OR OBSTRUCTIONS TO VISIBILITY.

AZZ001>003-036-241000-
NORTHWEST ARIZONA

CITY           SKY/WX    TMP DP  RH WIND       PRES   REMARKS
BULLHEAD CITY  CLEAR     57  32  38 CALM      30.09R
KINGMAN        CLEAR     42  31  64 SE9       30.15S
$$

AZZ004>008-015-016-018-241000-
NORTH CENTRAL ARIZONA

CITY           SKY/WX    TMP DP  RH WIND       PRES   REMARKS
GRAND CANYON   CLEAR     33  29  85 VRB3      30.15S
WILLIAMS       CLEAR     32  27  80 W7        30.18S WCI  26
PRESCOTT       CLEAR     40  32  73 CALM      30.17S
FLAGSTAFF      CLEAR     34  25  69 W9        30.13R WCI  27
PAYSON         CLEAR     39  34  81 N7        30.18S WCI  34
PAGE           CLEAR     49 N/A N/A W12G18    30.06R
$$

AZZ009>014-017-241000-
NORTHEAST ARIZONA

CITY           SKY/WX    TMP DP  RH WIND       PRES   REMARKS
WINSLOW        CLEAR     41  28  60 W10       30.10R
SAINT JOHNS    CLOUDY    41  29  62 W18       30.06R
WINDOW ROCK    PTCLDY    36  28  73 W12G20    30.01R WCI  28
SHOW LOW       MOCLDY    32  28  86 S9        30.14R WCI  24
$$

AZZ023-241000-
GREATER PHOENIX AREA

CITY           SKY/WX    TMP DP  RH WIND       PRES   REMARKS
PHOENIX        CLEAR     61  34  36 NW5       30.10R
BUCKEYE        CLEAR     50  39  66 CALM      30.12S
LUKE AFB       CLEAR     56  39  54 CALM      30.10R
DEER VALLEY    CLEAR     49  41  74 CALM      30.10S
SCOTTSDALE     CLEAR     54  40  59 CALM      30.12R
MESA-GATEWAY   CLEAR     50  41  71 SE5       30.13R
$$

AZZ027-028-241000-
SOUTHWEST MARICOPA COUNTY AND PINAL COUNTY

CITY           SKY/WX    TMP DP  RH WIND       PRES   REMARKS
CASA GRANDE    NOT AVBL
GILA BEND      FAIR      58  31  36 SW10      30.12R
$$

AZZ503-504-507>509-241000-
SOUTHEAST ARIZONA

CITY           SKY/WX    TMP DP  RH WIND       PRES   REMARKS
TUCSON         CLEAR     49  22  34 SE7       30.18S
DAVIS-MONTHAN  CLEAR     47  22  37 SE8       30.17S
NOGALES        CLEAR     39  20  46 CALM      30.19S
SIERRA VISTA   CLEAR     46  19  35 W14       30.18F
DOUGLAS        CLEAR     37  19  48 SE6       30.18S WCI  32
SAFFORD        CLEAR     45  34  65 NW7       30.10R
$$

AZZ020-021-025-026-031-241000-
SOUTHWEST ARIZONA

CITY           SKY/WX    TMP DP  RH WIND       PRES   REMARKS
YUMA           CLEAR     59  40  49 W10       30.14S
$$

CAZ031-033-041-043-047-048-061-241000-
SOUTHERN CALIFORNIA

CITY           SKY/WX    TMP DP  RH WIND       PRES   REMARKS
DOWNTOWN L.A.  CLEAR     57  50  77 CALM      30.23S
L.A. AIRPORT   PTCLDY    55  52  89 N3        30.24R
SAN DIEGO      PTCLDY    56  45  66 E5        30.25F
BURBANK        CLEAR     52  46  80 N3        30.23R
ONTARIO        CLEAR     50  42  74 CALM      30.23R
RIVERSIDE      CLEAR     50  43  77 CALM      30.24S
PALM SPRINGS   CLEAR     59  40  49 CALM      30.15R
EL CENTRO NAS  CLEAR     56  35  45 CALM      30.15R
IMPERIAL       CLEAR     57  38  48 CALM      30.13R
BLYTHE         CLEAR     58  42  55 SW9       30.11R
NEEDLES        CLEAR     65  22  19 W9        30.09S
$$

NVZ020-UTZ003-241000-
SOUTHERN NEVADA-UTAH

CITY           SKY/WX    TMP DP  RH WIND       PRES   REMARKS
LAS VEGAS      CLEAR     56  34  43 SW5       30.12R
SALT LAKE CITY CLEAR     35  34  96 SE6       30.16R WCI  30
$$

NMZ009-TXZ055-241000-
NEW MEXICO-WEST TEXAS

CITY           SKY/WX    TMP DP  RH WIND       PRES   REMARKS
ALBUQUERQUE    CLOUDY    43  30  60 W17       29.87F
EL PASO        PTCLDY    52  22  30 W26G38    30.02F
$$


........................KEY........................
SKY/WX - SKY CONDITION/WEATHER
TMP    - TEMPERATURE IN FAHRENHEIT
DP     - DEW POINT IN FAHRENHEIT
RH     - RELATIVE HUMIDITY IN PERCENT
WIND   - DIRECTION AND SPEED IN MILES PER HOUR (MPH)
VRB    - VARIABLE WIND DIRECTION
PRES   - MEAN SEA LEVEL PRESSURE IN INCHES OF MERCURY
         F - FALLING PRESSURE   R - RISING PRESSURE
         S - STEADY PRESSURE
VSB    - VISIBILITY IN MILES
HX     - HEAT INDEX IN FAHRENHEIT
WCI    - WIND CHILL INDEX IN FAHRENHEIT
TC     - TEMPERATURE IN CELSIUS WHICH IS ALSO KNOWN AS
         TEMPERATURE IN CENTIGRADE
AFB    - AIR FORCE BASE
         LUKE AFB IS LUKE AIR FORCE BASE
         DAVIS-MONTHAN IS DAVIS-MONTHAN AIR FORCE BASE
NAS    - NAVAL AIR STATION
         EL CENTRO NAS IS EL CENTRO NAVAL AIR STATION
N/A    - NOT AVAILABLE





USA.gov is the U.S. government's official web portal to all federal, state and local government web resources and services.